Tracking 29040 objects as of 16-Jun-2024
HD Live streaming from Space Station
objects crossing your sky now

SL-14 DEB

Track SL-14 DEB now!
10-day predictions


NORAD ID: 25999
Int'l Code: 1991-068J
Perigee: 1,377.5 km
Apogee: 1,468.1 km
Inclination: 82.7 °
Period: 114.1 minutes
Semi major axis: 7793 km
RCS: 0.0764 m2 (small)
Launch date: September 28, 1991
Source: Commonwealth of Independent States (former USSR) (CIS)
Launch site: PLESETSK MISSILE AND SPACE COMPLEX (PKMTR)

Note: This is SATELLITE DEBRIS
Your satellite tracking list
Your tracking list is empty




NASA's NSSDC Master Catalog

Two Line Element Set (TLE):
1 25999U 91068J   24168.60587816  .00000127  00000-0  65519-3 0  9999
2 25999  82.6969 207.2962 0058104 271.9249 252.5085 12.61767394136289
Source of the keplerian elements: AFSPC